Year,Month,Day,Hour,Minute,Value (Times are PST for temperature in C)
2013,09,01,00,00,14.90
2013,09,01,00,01,14.90
2013,09,01,00,02,14.90
2013,09,01,00,03,14.90
2013,09,01,00,04,14.90
2013,09,01,00,05,14.90
2013,09,01,00,06,14.90
2013,09,01,00,07,14.90
2013,09,01,00,08,14.90
2013,09,01,00,09,14.90
2013,09,01,00,10,14.90
2013,09,01,00,11,14.90
2013,09,01,00,12,14.90
2013,09,01,00,13,14.90
2013,09,01,00,14,14.90
2013,09,01,00,15,14.80
2013,09,01,00,16,14.80
2013,09,01,00,17,14.80
2013,09,01,00,18,14.80
2013,09,01,00,19,14.80
2013,09,01,00,20,14.80
2013,09,01,00,21,14.80
2013,09,01,00,22,14.80
2013,09,01,00,23,14.80
2013,09,01,00,24,14.80
2013,09,01,00,25,14.80
2013,09,01,00,26,14.80
2013,09,01,00,27,14.80
2013,09,01,00,28,14.80
2013,09,01,00,29,14.80
2013,09,01,00,30,14.70
2013,09,01,00,31,14.70
2013,09,01,00,32,14.70
2013,09,01,00,33,14.70
2013,09,01,00,34,14.70
2013,09,01,00,35,14.70
2013,09,01,00,36,14.60
2013,09,01,00,37,14.60
2013,09,01,00,38,14.60
2013,09,01,00,39,14.60
2013,09,01,00,40,14.60
2013,09,01,00,41,14.60
2013,09,01,00,42,14.60
2013,09,01,00,43,14.60
2013,09,01,00,44,14.50
2013,09,01,00,45,14.50
2013,09,01,00,46,14.50
2013,09,01,00,47,14.40
2013,09,01,00,48,14.40
2013,09,01,00,49,14.40
2013,09,01,00,50,14.40
2013,09,01,00,51,14.40
2013,09,01,00,52,14.30
2013,09,01,00,53,14.30
2013,09,01,00,54,14.30
2013,09,01,00,55,14.30
2013,09,01,00,56,14.30
2013,09,01,00,57,14.30
2013,09,01,00,58,14.20
2013,09,01,00,59,14.20
2013,09,01,01,00,14.20
2013,09,01,01,01,14.20
2013,09,01,01,02,14.20
2013,09,01,01,03,14.20
2013,09,01,01,04,14.20
2013,09,01,01,05,14.10
2013,09,01,01,06,14.10
2013,09,01,01,07,14.10
2013,09,01,01,08,14.10
2013,09,01,01,09,14.10
2013,09,01,01,10,14.10
2013,09,01,01,11,14.10
2013,09,01,01,12,14.10
2013,09,01,01,13,14.10
2013,09,01,01,14,14.10
2013,09,01,01,15,14.10
2013,09,01,01,16,14.00
2013,09,01,01,17,14.00
2013,09,01,01,18,14.00
2013,09,01,01,19,14.00
2013,09,01,01,20,14.00
2013,09,01,01,21,14.00
2013,09,01,01,22,13.90
2013,09,01,01,23,13.90
2013,09,01,01,24,13.90
2013,09,01,01,25,13.90
2013,09,01,01,26,13.90
2013,09,01,01,27,13.90
2013,09,01,01,28,13.90
2013,09,01,01,29,13.90
2013,09,01,01,30,13.90
2013,09,01,01,31,13.80
2013,09,01,01,32,13.80
2013,09,01,01,33,13.80
2013,09,01,01,34,13.80
2013,09,01,01,35,13.80
2013,09,01,01,36,13.80
2013,09,01,01,37,13.80
2013,09,01,01,38,13.80
2013,09,01,01,39,13.80
2013,09,01,01,40,13.80
2013,09,01,01,41,13.80
2013,09,01,01,42,13.70
2013,09,01,01,43,13.70
2013,09,01,01,44,13.70
2013,09,01,01,45,13.70
2013,09,01,01,46,13.70
2013,09,01,01,47,13.70
2013,09,01,01,48,13.70
2013,09,01,01,49,13.70
2013,09,01,01,50,13.60
2013,09,01,01,51,13.60
2013,09,01,01,52,13.60
2013,09,01,01,53,13.60
2013,09,01,01,54,13.60
2013,09,01,01,55,13.60
2013,09,01,01,56,13.60
2013,09,01,01,57,13.60
2013,09,01,01,58,13.60
2013,09,01,01,59,13.60
2013,09,01,02,00,13.60
2013,09,01,02,01,13.60
2013,09,01,02,02,13.50
2013,09,01,02,03,13.50
2013,09,01,02,04,13.50
2013,09,01,02,05,13.50
2013,09,01,02,06,13.50
2013,09,01,02,07,13.50
2013,09,01,02,08,13.50
2013,09,01,02,09,13.50
2013,09,01,02,10,13.50
2013,09,01,02,11,13.50
2013,09,01,02,12,13.40
2013,09,01,02,13,13.40
2013,09,01,02,14,13.40
2013,09,01,02,15,13.40
2013,09,01,02,16,13.40
2013,09,01,02,17,13.40
2013,09,01,02,18,13.40
2013,09,01,02,19,13.40
2013,09,01,02,20,13.40
2013,09,01,02,21,13.40
2013,09,01,02,22,13.40
2013,09,01,02,23,13.40
2013,09,01,02,24,13.40
2013,09,01,02,25,13.30
2013,09,01,02,26,13.30
2013,09,01,02,27,13.30
2013,09,01,02,28,13.30
2013,09,01,02,29,13.30
2013,09,01,02,30,13.30
2013,09,01,02,31,13.20
2013,09,01,02,32,13.20
2013,09,01,02,33,13.20
2013,09,01,02,34,13.20
2013,09,01,02,35,13.20
2013,09,01,02,36,13.20
2013,09,01,02,37,13.20
2013,09,01,02,38,13.20
2013,09,01,02,39,13.20
2013,09,01,02,40,13.10
2013,09,01,02,41,13.10
2013,09,01,02,42,13.10
2013,09,01,02,43,13.10
2013,09,01,02,44,13.10
2013,09,01,02,45,13.10
2013,09,01,02,46,13.10
2013,09,01,02,47,13.10
2013,09,01,02,48,13.10
2013,09,01,02,49,13.10
2013,09,01,02,50,13.10
2013,09,01,02,51,13.00
2013,09,01,02,52,13.00
2013,09,01,02,53,13.00
2013,09,01,02,54,13.00
2013,09,01,02,55,13.00
2013,09,01,02,56,13.00
2013,09,01,02,57,13.00
2013,09,01,02,58,13.00
2013,09,01,02,59,13.00
2013,09,01,03,00,12.90
2013,09,01,03,01,12.90
2013,09,01,03,02,12.90
2013,09,01,03,03,12.90
2013,09,01,03,04,12.90
2013,09,01,03,05,12.90
2013,09,01,03,06,12.90
2013,09,01,03,07,12.90
2013,09,01,03,08,12.90
2013,09,01,03,09,12.90
2013,09,01,03,10,12.90
2013,09,01,03,11,12.90
2013,09,01,03,12,12.90
2013,09,01,03,13,12.80
2013,09,01,03,14,12.80
2013,09,01,03,15,12.80
2013,09,01,03,16,12.80
2013,09,01,03,17,12.80
2013,09,01,03,18,12.80
2013,09,01,03,19,12.80
2013,09,01,03,20,12.80
2013,09,01,03,21,12.80
2013,09,01,03,22,12.80
2013,09,01,03,23,12.80
2013,09,01,03,24,12.80
2013,09,01,03,25,12.80
2013,09,01,03,26,12.80
2013,09,01,03,27,12.80
2013,09,01,03,28,12.80
2013,09,01,03,29,12.80
2013,09,01,03,30,12.80
2013,09,01,03,31,12.80
2013,09,01,03,32,12.80
2013,09,01,03,33,12.80
2013,09,01,03,34,12.80
2013,09,01,03,35,12.80
2013,09,01,03,36,12.80
2013,09,01,03,37,12.80
2013,09,01,03,38,12.80
2013,09,01,03,39,12.80
2013,09,01,03,40,12.80
2013,09,01,03,41,12.80
2013,09,01,03,42,12.80
2013,09,01,03,43,12.80
2013,09,01,03,44,12.80
2013,09,01,03,45,12.80
2013,09,01,03,46,12.80
2013,09,01,03,47,12.80
2013,09,01,03,48,12.80
2013,09,01,03,49,12.80
2013,09,01,03,50,12.80
2013,09,01,03,51,12.80
2013,09,01,03,52,12.80
2013,09,01,03,53,12.80
2013,09,01,03,54,12.80
2013,09,01,03,55,12.80
2013,09,01,03,56,12.80
2013,09,01,03,57,12.80
2013,09,01,03,58,12.80
2013,09,01,03,59,12.80
2013,09,01,04,00,12.80
2013,09,01,04,01,12.80
2013,09,01,04,02,12.80
2013,09,01,04,03,12.80
2013,09,01,04,04,12.80
2013,09,01,04,05,12.80
2013,09,01,04,06,12.70
2013,09,01,04,07,12.70
2013,09,01,04,08,12.70
2013,09,01,04,09,12.70
2013,09,01,04,10,12.70
2013,09,01,04,11,12.70
2013,09,01,04,12,12.70
2013,09,01,04,13,12.70
2013,09,01,04,14,12.70
2013,09,01,04,15,12.70
2013,09,01,04,16,12.70
2013,09,01,04,17,12.70
2013,09,01,04,18,12.60
2013,09,01,04,19,12.60
2013,09,01,04,20,12.60
2013,09,01,04,21,12.60
2013,09,01,04,22,12.60
2013,09,01,04,23,12.60
2013,09,01,04,24,12.60
2013,09,01,04,25,12.60
2013,09,01,04,26,12.60
2013,09,01,04,27,12.60
2013,09,01,04,28,12.60
2013,09,01,04,29,12.60
2013,09,01,04,30,12.60
2013,09,01,04,31,12.60
2013,09,01,04,32,12.60
2013,09,01,04,33,12.60
2013,09,01,04,34,12.60
2013,09,01,04,35,12.60
2013,09,01,04,36,12.60
2013,09,01,04,37,12.60
2013,09,01,04,38,12.60
2013,09,01,04,39,12.60
2013,09,01,04,40,12.60
2013,09,01,04,41,12.50
2013,09,01,04,42,12.50
2013,09,01,04,43,12.50
2013,09,01,04,44,12.50
2013,09,01,04,45,12.50
2013,09,01,04,46,12.50
2013,09,01,04,47,12.50
2013,09,01,04,48,12.50
2013,09,01,04,49,12.50
2013,09,01,04,50,12.50
2013,09,01,04,51,12.50
2013,09,01,04,52,12.50
2013,09,01,04,53,12.50
2013,09,01,04,54,12.40
2013,09,01,04,55,12.40
2013,09,01,04,56,12.40
2013,09,01,04,57,12.40
2013,09,01,04,58,12.40
2013,09,01,04,59,12.40
2013,09,01,05,00,12.40
2013,09,01,05,01,12.40
2013,09,01,05,02,12.40
2013,09,01,05,03,12.40
2013,09,01,05,04,12.40
2013,09,01,05,05,12.40
2013,09,01,05,06,12.40
2013,09,01,05,07,12.40
2013,09,01,05,08,12.40
2013,09,01,05,09,12.40
2013,09,01,05,10,12.40
2013,09,01,05,11,12.40
2013,09,01,05,12,12.40
2013,09,01,05,13,12.40
2013,09,01,05,14,12.30
2013,09,01,05,15,12.30
2013,09,01,05,16,12.30
2013,09,01,05,17,12.30
2013,09,01,05,18,12.30
2013,09,01,05,19,12.30
2013,09,01,05,20,12.30
2013,09,01,05,21,12.30
2013,09,01,05,22,12.30
2013,09,01,05,23,12.30
2013,09,01,05,24,12.30
2013,09,01,05,25,12.30
2013,09,01,05,26,12.30
2013,09,01,05,27,12.30
2013,09,01,05,28,12.30
2013,09,01,05,29,12.30
2013,09,01,05,30,12.20
2013,09,01,05,31,12.20
2013,09,01,05,32,12.20
2013,09,01,05,33,12.20
2013,09,01,05,34,12.20
2013,09,01,05,35,12.20
2013,09,01,05,36,12.20
2013,09,01,05,37,12.20
2013,09,01,05,38,12.20
2013,09,01,05,39,12.20
2013,09,01,05,40,12.20
2013,09,01,05,41,12.20
2013,09,01,05,42,12.20
2013,09,01,05,43,12.20
2013,09,01,05,44,12.20
2013,09,01,05,45,12.20
2013,09,01,05,46,12.20
2013,09,01,05,47,12.20
2013,09,01,05,48,12.20
2013,09,01,05,49,12.20
2013,09,01,05,50,12.10
2013,09,01,05,51,12.10
2013,09,01,05,52,12.10
2013,09,01,05,53,12.10
2013,09,01,05,54,12.10
2013,09,01,05,55,12.10
2013,09,01,05,56,12.10
2013,09,01,05,57,12.00
2013,09,01,05,58,12.00
2013,09,01,05,59,12.00
2013,09,01,06,00,12.00
2013,09,01,06,01,11.90
2013,09,01,06,02,11.90
2013,09,01,06,03,11.90
2013,09,01,06,04,11.90
2013,09,01,06,05,11.90
2013,09,01,06,06,11.90
2013,09,01,06,07,11.90
2013,09,01,06,08,11.90
2013,09,01,06,09,11.90
2013,09,01,06,10,11.90
2013,09,01,06,11,11.80
2013,09,01,06,12,11.80
2013,09,01,06,13,11.80
2013,09,01,06,14,11.80
2013,09,01,06,15,11.80
2013,09,01,06,16,11.80
2013,09,01,06,17,11.80
2013,09,01,06,18,11.80
2013,09,01,06,19,11.80
2013,09,01,06,20,11.80
2013,09,01,06,21,11.80
2013,09,01,06,22,11.80
2013,09,01,06,23,11.80
2013,09,01,06,24,11.80
2013,09,01,06,25,11.80
2013,09,01,06,26,11.80
2013,09,01,06,27,11.80
2013,09,01,06,28,11.80
2013,09,01,06,29,11.80
2013,09,01,06,30,11.80
2013,09,01,06,31,11.80
2013,09,01,06,32,11.80
2013,09,01,06,33,11.80
2013,09,01,06,34,11.80
2013,09,01,06,35,11.80
2013,09,01,06,36,11.70
2013,09,01,06,37,11.70
2013,09,01,06,38,11.70
2013,09,01,06,39,11.70
2013,09,01,06,40,11.70
2013,09,01,06,41,11.80
2013,09,01,06,42,11.80
2013,09,01,06,43,11.80
2013,09,01,06,44,11.80
2013,09,01,06,45,11.80
2013,09,01,06,46,11.80
2013,09,01,06,47,11.80
2013,09,01,06,48,11.80
2013,09,01,06,49,11.80
2013,09,01,06,50,11.80
2013,09,01,06,51,11.80
2013,09,01,06,52,11.80
2013,09,01,06,53,11.80
2013,09,01,06,54,11.80
2013,09,01,06,55,11.80
2013,09,01,06,56,11.90
2013,09,01,06,57,11.90
2013,09,01,06,58,11.90
2013,09,01,06,59,11.90
2013,09,01,07,00,11.90
2013,09,01,07,01,11.90
2013,09,01,07,02,11.90
2013,09,01,07,03,11.90
2013,09,01,07,04,11.90
2013,09,01,07,05,11.90
2013,09,01,07,06,12.00
2013,09,01,07,07,12.00
2013,09,01,07,08,12.00
2013,09,01,07,09,12.00
2013,09,01,07,10,12.10
2013,09,01,07,11,12.10
2013,09,01,07,12,12.10
2013,09,01,07,13,12.10
2013,09,01,07,14,12.10
2013,09,01,07,15,12.10
2013,09,01,07,16,12.10
2013,09,01,07,17,12.10
2013,09,01,07,18,12.10
2013,09,01,07,19,12.10
2013,09,01,07,20,12.10
2013,09,01,07,21,12.20
2013,09,01,07,22,12.20
2013,09,01,07,23,12.20
2013,09,01,07,24,12.20
2013,09,01,07,25,12.20
2013,09,01,07,26,12.30
2013,09,01,07,27,12.30
2013,09,01,07,28,12.30
2013,09,01,07,29,12.30
2013,09,01,07,30,12.30
2013,09,01,07,31,12.30
2013,09,01,07,32,12.40
2013,09,01,07,33,12.40
2013,09,01,07,34,12.40
2013,09,01,07,35,12.40
2013,09,01,07,36,12.40
2013,09,01,07,37,12.40
2013,09,01,07,38,12.50
2013,09,01,07,39,12.50
2013,09,01,07,40,12.50
2013,09,01,07,41,12.50
2013,09,01,07,42,12.50
2013,09,01,07,43,12.50
2013,09,01,07,44,12.50
2013,09,01,07,45,12.50
2013,09,01,07,46,12.60
2013,09,01,07,47,12.60
2013,09,01,07,48,12.60
2013,09,01,07,49,12.60
2013,09,01,07,50,12.70
2013,09,01,07,51,12.70
2013,09,01,07,52,12.70
2013,09,01,07,53,12.70
2013,09,01,07,54,12.70
2013,09,01,07,55,12.70
2013,09,01,07,56,12.70
2013,09,01,07,57,12.80
2013,09,01,07,58,12.80
2013,09,01,07,59,12.80
2013,09,01,08,00,12.90
2013,09,01,08,01,12.90
2013,09,01,08,02,12.90
2013,09,01,08,03,12.90
2013,09,01,08,04,12.90
2013,09,01,08,05,12.90
2013,09,01,08,06,12.90
2013,09,01,08,07,13.00
2013,09,01,08,08,13.00
2013,09,01,08,09,13.10
2013,09,01,08,10,13.10
2013,09,01,08,11,13.10
2013,09,01,08,12,13.10
2013,09,01,08,13,13.20
2013,09,01,08,14,13.20
2013,09,01,08,15,13.30
2013,09,01,08,16,13.30
2013,09,01,08,17,13.40
2013,09,01,08,18,13.50
2013,09,01,08,19,13.50
2013,09,01,08,20,13.60
2013,09,01,08,21,13.60
2013,09,01,08,22,13.70
2013,09,01,08,23,13.70
2013,09,01,08,24,13.80
2013,09,01,08,25,13.80
2013,09,01,08,26,13.90
2013,09,01,08,27,13.90
2013,09,01,08,28,13.90
2013,09,01,08,29,14.00
2013,09,01,08,30,14.00
2013,09,01,08,31,14.00
2013,09,01,08,32,14.10
2013,09,01,08,33,14.10
2013,09,01,08,34,14.10
2013,09,01,08,35,14.10
2013,09,01,08,36,14.20
2013,09,01,08,37,14.20
2013,09,01,08,38,14.20
2013,09,01,08,39,14.20
2013,09,01,08,40,14.20
2013,09,01,08,41,14.30
2013,09,01,08,42,14.30
2013,09,01,08,43,14.40
2013,09,01,08,44,14.40
2013,09,01,08,45,14.40
2013,09,01,08,46,14.40
2013,09,01,08,47,14.50
2013,09,01,08,48,14.50
2013,09,01,08,49,14.60
2013,09,01,08,50,14.60
2013,09,01,08,51,14.60
2013,09,01,08,52,14.70
2013,09,01,08,53,14.70
2013,09,01,08,54,14.80
2013,09,01,08,55,14.80
2013,09,01,08,56,14.80
2013,09,01,08,57,14.90
2013,09,01,08,58,14.90
2013,09,01,08,59,14.90
2013,09,01,09,00,14.90
2013,09,01,09,01,15.00
2013,09,01,09,02,15.00
2013,09,01,09,03,15.00
2013,09,01,09,04,15.10
2013,09,01,09,05,15.10
2013,09,01,09,06,15.20
2013,09,01,09,07,15.20
2013,09,01,09,08,15.20
2013,09,01,09,09,15.30
2013,09,01,09,10,15.30
2013,09,01,09,11,15.30
2013,09,01,09,12,15.30
2013,09,01,09,13,15.40
2013,09,01,09,14,15.40
2013,09,01,09,15,15.50
2013,09,01,09,16,15.50
2013,09,01,09,17,15.60
2013,09,01,09,18,15.70
2013,09,01,09,19,15.70
2013,09,01,09,20,15.80
2013,09,01,09,21,15.90
2013,09,01,09,22,16.00
2013,09,01,09,23,16.10
2013,09,01,09,24,16.20
2013,09,01,09,25,16.30
2013,09,01,09,26,16.40
2013,09,01,09,27,16.50
2013,09,01,09,28,16.60
2013,09,01,09,29,16.70
2013,09,01,09,30,16.80
2013,09,01,09,31,16.80
2013,09,01,09,32,16.90
2013,09,01,09,33,17.00
2013,09,01,09,34,17.10
2013,09,01,09,35,17.20
2013,09,01,09,36,17.30
2013,09,01,09,37,17.40
2013,09,01,09,38,17.40
2013,09,01,09,39,17.50
2013,09,01,09,40,17.50
2013,09,01,09,41,17.60
2013,09,01,09,42,17.70
2013,09,01,09,43,17.70
2013,09,01,09,44,17.80
2013,09,01,09,45,17.80
2013,09,01,09,46,17.90
2013,09,01,09,47,17.90
2013,09,01,09,48,18.00
2013,09,01,09,49,18.10
2013,09,01,09,50,18.10
2013,09,01,09,51,18.20
2013,09,01,09,52,18.20
2013,09,01,09,53,18.30
2013,09,01,09,54,18.40
2013,09,01,09,55,18.40
2013,09,01,09,56,18.50
2013,09,01,09,57,18.60
2013,09,01,09,58,18.70
2013,09,01,09,59,18.80
2013,09,01,10,00,18.90
2013,09,01,10,01,19.00
2013,09,01,10,02,19.00
2013,09,01,10,03,19.10
2013,09,01,10,04,19.20
2013,09,01,10,05,19.30
2013,09,01,10,06,19.40
2013,09,01,10,07,19.50
2013,09,01,10,08,19.60
2013,09,01,10,09,19.60
2013,09,01,10,10,19.70
2013,09,01,10,11,19.70
2013,09,01,10,12,19.80
2013,09,01,10,13,19.80
2013,09,01,10,14,19.90
2013,09,01,10,15,19.90
2013,09,01,10,16,20.00
2013,09,01,10,17,20.10
2013,09,01,10,18,20.20
2013,09,01,10,19,20.20
2013,09,01,10,20,20.30
2013,09,01,10,21,20.30
2013,09,01,10,22,20.30
2013,09,01,10,23,20.30
2013,09,01,10,24,20.20
2013,09,01,10,25,20.20
2013,09,01,10,26,20.30
2013,09,01,10,27,20.30
2013,09,01,10,28,20.30
2013,09,01,10,29,20.30
2013,09,01,10,30,20.40
2013,09,01,10,31,20.40
2013,09,01,10,32,20.40
2013,09,01,10,33,20.50
2013,09,01,10,34,20.50
2013,09,01,10,35,20.60
2013,09,01,10,36,20.60
2013,09,01,10,37,20.60
2013,09,01,10,38,20.70
2013,09,01,10,39,20.70
2013,09,01,10,40,20.70
2013,09,01,10,41,20.70
2013,09,01,10,42,20.70
2013,09,01,10,43,20.70
2013,09,01,10,44,20.80
2013,09,01,10,45,20.80
2013,09,01,10,46,20.90
2013,09,01,10,47,21.00
2013,09,01,10,48,21.10
2013,09,01,10,49,21.20
2013,09,01,10,50,21.30
2013,09,01,10,51,21.30
2013,09,01,10,52,21.40
2013,09,01,10,53,21.40
2013,09,01,10,54,21.50
2013,09,01,10,55,21.50
2013,09,01,10,56,21.50
2013,09,01,10,57,21.40
2013,09,01,10,58,21.40
2013,09,01,10,59,21.40
2013,09,01,11,00,21.40
2013,09,01,11,01,21.40
2013,09,01,11,02,21.40
2013,09,01,11,03,21.40
2013,09,01,11,04,21.40
2013,09,01,11,05,21.50
2013,09,01,11,06,21.60
2013,09,01,11,07,21.60
2013,09,01,11,08,21.60
2013,09,01,11,09,21.60
2013,09,01,11,10,21.60
2013,09,01,11,11,21.60
2013,09,01,11,12,21.70
2013,09,01,11,13,21.70
2013,09,01,11,14,21.70
2013,09,01,11,15,21.80
2013,09,01,11,16,21.90
2013,09,01,11,17,21.90
2013,09,01,11,18,21.90
2013,09,01,11,19,21.90
2013,09,01,11,20,21.90
2013,09,01,11,21,21.90
2013,09,01,11,22,21.90
2013,09,01,11,23,22.00
2013,09,01,11,24,22.00
2013,09,01,11,25,22.10
2013,09,01,11,26,22.10
2013,09,01,11,27,22.20
2013,09,01,11,28,22.20
2013,09,01,11,29,22.30
2013,09,01,11,30,22.30
2013,09,01,11,31,22.30
2013,09,01,11,32,22.40
2013,09,01,11,33,22.40
2013,09,01,11,34,22.50
2013,09,01,11,35,22.50
2013,09,01,11,36,22.50
2013,09,01,11,37,22.50
2013,09,01,11,38,22.40
2013,09,01,11,39,22.30
2013,09,01,11,40,22.20
2013,09,01,11,41,22.10
2013,09,01,11,42,22.10
2013,09,01,11,43,22.00
2013,09,01,11,44,21.90
2013,09,01,11,45,21.80
2013,09,01,11,46,21.70
2013,09,01,11,47,21.60
2013,09,01,11,48,21.50
2013,09,01,11,49,21.50
2013,09,01,11,50,21.40
2013,09,01,11,51,21.30
2013,09,01,11,52,21.20
2013,09,01,11,53,21.20
2013,09,01,11,54,21.10
2013,09,01,11,55,21.10
2013,09,01,11,56,21.10
2013,09,01,11,57,21.00
2013,09,01,11,58,20.90
2013,09,01,11,59,20.80
2013,09,01,12,00,20.80
2013,09,01,12,01,20.70
2013,09,01,12,02,20.70
2013,09,01,12,03,20.70
2013,09,01,12,04,20.60
2013,09,01,12,05,20.60
2013,09,01,12,06,20.50
2013,09,01,12,07,20.50
2013,09,01,12,08,20.40
2013,09,01,12,09,20.40
2013,09,01,12,10,20.30
2013,09,01,12,11,20.30
2013,09,01,12,12,20.30
2013,09,01,12,13,20.30
2013,09,01,12,14,20.30
2013,09,01,12,15,20.30
2013,09,01,12,16,20.30
2013,09,01,12,17,20.30
2013,09,01,12,18,20.30
2013,09,01,12,19,20.30
2013,09,01,12,20,20.30
2013,09,01,12,21,20.30
2013,09,01,12,22,20.30
2013,09,01,12,23,20.30
2013,09,01,12,24,20.30
2013,09,01,12,25,20.30
2013,09,01,12,26,20.30
2013,09,01,12,27,20.30
2013,09,01,12,28,20.30
2013,09,01,12,29,20.30
2013,09,01,12,30,20.40
2013,09,01,12,31,20.50
2013,09,01,12,32,20.60
2013,09,01,12,33,20.70
2013,09,01,12,34,20.70
2013,09,01,12,35,20.80
2013,09,01,12,36,20.90
2013,09,01,12,37,21.00
2013,09,01,12,38,21.10
2013,09,01,12,39,21.20
2013,09,01,12,40,21.20
2013,09,01,12,41,21.30
2013,09,01,12,42,21.30
2013,09,01,12,43,21.30
2013,09,01,12,44,21.30
2013,09,01,12,45,21.30
2013,09,01,12,46,21.20
2013,09,01,12,47,21.20
2013,09,01,12,48,21.20
2013,09,01,12,49,21.20
2013,09,01,12,50,21.20
2013,09,01,12,51,21.10
2013,09,01,12,52,21.10
2013,09,01,12,53,21.10
2013,09,01,12,54,21.20
2013,09,01,12,55,21.20
2013,09,01,12,56,21.20
2013,09,01,12,57,21.10
2013,09,01,12,58,21.10
2013,09,01,12,59,21.10
2013,09,01,13,00,21.00
2013,09,01,13,01,20.90
2013,09,01,13,02,20.90
2013,09,01,13,03,20.80
2013,09,01,13,04,20.80
2013,09,01,13,05,20.80
2013,09,01,13,06,20.80
2013,09,01,13,07,20.80
2013,09,01,13,08,20.80
2013,09,01,13,09,20.90
2013,09,01,13,10,21.10
2013,09,01,13,11,21.20
2013,09,01,13,12,21.30
2013,09,01,13,13,21.30
2013,09,01,13,14,21.40
2013,09,01,13,15,21.40
2013,09,01,13,16,21.40
2013,09,01,13,17,21.40
2013,09,01,13,18,21.40
2013,09,01,13,19,21.40
2013,09,01,13,20,21.40
2013,09,01,13,21,21.50
2013,09,01,13,22,21.50
2013,09,01,13,23,21.60
2013,09,01,13,24,21.70
2013,09,01,13,25,21.80
2013,09,01,13,26,21.90
2013,09,01,13,27,21.90
2013,09,01,13,28,21.90
2013,09,01,13,29,21.90
2013,09,01,13,30,21.90
2013,09,01,13,31,21.90
2013,09,01,13,32,21.90
2013,09,01,13,33,21.90
2013,09,01,13,34,21.90
2013,09,01,13,35,21.90
2013,09,01,13,36,22.00
2013,09,01,13,37,22.00
2013,09,01,13,38,21.90
2013,09,01,13,39,21.90
2013,09,01,13,40,21.90
2013,09,01,13,41,21.90
2013,09,01,13,42,22.00
2013,09,01,13,43,22.00
2013,09,01,13,44,22.00
2013,09,01,13,45,22.10
2013,09,01,13,46,22.20
2013,09,01,13,47,22.30
2013,09,01,13,48,22.30
2013,09,01,13,49,22.30
2013,09,01,13,50,22.30
2013,09,01,13,51,22.40
2013,09,01,13,52,22.40
2013,09,01,13,53,22.50
2013,09,01,13,54,22.60
2013,09,01,13,55,22.70
2013,09,01,13,56,22.70
2013,09,01,13,57,22.80
2013,09,01,13,58,22.80
2013,09,01,13,59,22.90
2013,09,01,14,00,22.90
2013,09,01,14,01,22.90
2013,09,01,14,02,23.00
2013,09,01,14,03,23.10
2013,09,01,14,04,23.20
2013,09,01,14,05,23.30
2013,09,01,14,06,23.40
2013,09,01,14,07,23.40
2013,09,01,14,08,23.40
2013,09,01,14,09,23.40
2013,09,01,14,10,23.50
2013,09,01,14,11,23.60
2013,09,01,14,12,23.60
2013,09,01,14,13,23.70
2013,09,01,14,14,23.80
2013,09,01,14,15,23.80
2013,09,01,14,16,23.90
2013,09,01,14,17,23.90
2013,09,01,14,18,23.90
2013,09,01,14,19,23.90
2013,09,01,14,20,24.00
2013,09,01,14,21,24.00
2013,09,01,14,22,24.00
2013,09,01,14,23,23.90
2013,09,01,14,24,23.90
2013,09,01,14,25,23.90
2013,09,01,14,26,23.90
2013,09,01,14,27,23.90
2013,09,01,14,28,23.90
2013,09,01,14,29,24.00
2013,09,01,14,30,24.10
2013,09,01,14,31,24.10
2013,09,01,14,32,24.20
2013,09,01,14,33,24.20
2013,09,01,14,34,24.30
2013,09,01,14,35,24.30
2013,09,01,14,36,24.30
2013,09,01,14,37,24.30
2013,09,01,14,38,24.30
2013,09,01,14,39,24.30
2013,09,01,14,40,24.30
2013,09,01,14,41,24.40
2013,09,01,14,42,24.40
2013,09,01,14,43,24.40
2013,09,01,14,44,24.40
2013,09,01,14,45,24.40
2013,09,01,14,46,24.40
2013,09,01,14,47,24.40
2013,09,01,14,48,24.50
2013,09,01,14,49,24.50
2013,09,01,14,50,24.60
2013,09,01,14,51,24.60
2013,09,01,14,52,24.70
2013,09,01,14,53,24.80
2013,09,01,14,54,24.80
2013,09,01,14,55,24.90
2013,09,01,14,56,24.80
2013,09,01,14,57,24.80
2013,09,01,14,58,24.80
2013,09,01,14,59,24.80
2013,09,01,15,00,24.80
2013,09,01,15,01,24.80
2013,09,01,15,02,24.80
2013,09,01,15,03,24.80
2013,09,01,15,04,24.80
2013,09,01,15,05,24.80
2013,09,01,15,06,24.80
2013,09,01,15,07,24.80
2013,09,01,15,08,24.90
2013,09,01,15,09,24.90
2013,09,01,15,10,24.90
2013,09,01,15,11,24.90
2013,09,01,15,12,25.00
2013,09,01,15,13,25.00
2013,09,01,15,14,25.10
2013,09,01,15,15,25.20
2013,09,01,15,16,25.30
2013,09,01,15,17,25.30
2013,09,01,15,18,25.30
2013,09,01,15,19,25.40
2013,09,01,15,20,25.50
2013,09,01,15,21,25.60
2013,09,01,15,22,25.70
2013,09,01,15,23,25.70
2013,09,01,15,24,25.70
2013,09,01,15,25,25.60
2013,09,01,15,26,25.60
2013,09,01,15,27,25.60
2013,09,01,15,28,25.60
2013,09,01,15,29,25.60
2013,09,01,15,30,25.60
2013,09,01,15,31,25.60
2013,09,01,15,32,25.70
2013,09,01,15,33,25.70
2013,09,01,15,34,25.80
2013,09,01,15,35,25.80
2013,09,01,15,36,25.80
2013,09,01,15,37,25.90
2013,09,01,15,38,26.00
2013,09,01,15,39,26.10
2013,09,01,15,40,26.00
2013,09,01,15,41,26.00
2013,09,01,15,42,25.90
2013,09,01,15,43,25.80
2013,09,01,15,44,25.80
2013,09,01,15,45,25.80
2013,09,01,15,46,25.80
2013,09,01,15,47,25.80
2013,09,01,15,48,25.80
2013,09,01,15,49,25.80
2013,09,01,15,50,25.80
2013,09,01,15,51,25.80
2013,09,01,15,52,25.90
2013,09,01,15,53,25.90
2013,09,01,15,54,25.90
2013,09,01,15,55,25.80
2013,09,01,15,56,25.80
2013,09,01,15,57,25.70
2013,09,01,15,58,25.70
2013,09,01,15,59,25.70
2013,09,01,16,00,25.70
2013,09,01,16,01,25.70
2013,09,01,16,02,25.70
2013,09,01,16,03,25.60
2013,09,01,16,04,25.60
2013,09,01,16,05,25.60
2013,09,01,16,06,25.60
2013,09,01,16,07,25.60
2013,09,01,16,08,25.60
2013,09,01,16,09,25.60
2013,09,01,16,10,25.60
2013,09,01,16,11,25.60
2013,09,01,16,12,25.60
2013,09,01,16,13,25.60
2013,09,01,16,14,25.70
2013,09,01,16,15,25.70
2013,09,01,16,16,25.80
2013,09,01,16,17,25.80
2013,09,01,16,18,25.80
2013,09,01,16,19,25.70
2013,09,01,16,20,25.70
2013,09,01,16,21,25.70
2013,09,01,16,22,25.80
2013,09,01,16,23,25.80
2013,09,01,16,24,25.80
2013,09,01,16,25,25.80
2013,09,01,16,26,25.70
2013,09,01,16,27,25.70
2013,09,01,16,28,25.80
2013,09,01,16,29,25.80
2013,09,01,16,30,25.80
2013,09,01,16,31,25.80
2013,09,01,16,32,25.90
2013,09,01,16,33,25.90
2013,09,01,16,34,25.90
2013,09,01,16,35,25.90
2013,09,01,16,36,25.90
2013,09,01,16,37,25.90
2013,09,01,16,38,26.00
2013,09,01,16,39,26.10
2013,09,01,16,40,26.00
2013,09,01,16,41,25.90
2013,09,01,16,42,25.80
2013,09,01,16,43,25.70
2013,09,01,16,44,25.70
2013,09,01,16,45,25.60
2013,09,01,16,46,25.60
2013,09,01,16,47,25.50
2013,09,01,16,48,25.40
2013,09,01,16,49,25.40
2013,09,01,16,50,25.30
2013,09,01,16,51,25.30
2013,09,01,16,52,25.30
2013,09,01,16,53,25.30
2013,09,01,16,54,25.30
2013,09,01,16,55,25.30
2013,09,01,16,56,25.20
2013,09,01,16,57,25.20
2013,09,01,16,58,25.20
2013,09,01,16,59,25.20
2013,09,01,17,00,25.20
2013,09,01,17,01,25.20
2013,09,01,17,02,25.30
2013,09,01,17,03,25.30
2013,09,01,17,04,25.40
2013,09,01,17,05,25.40
2013,09,01,17,06,25.40
2013,09,01,17,07,25.50
2013,09,01,17,08,25.50
2013,09,01,17,09,25.50
2013,09,01,17,10,25.50
2013,09,01,17,11,25.60
2013,09,01,17,12,25.60
2013,09,01,17,13,25.60
2013,09,01,17,14,25.70
2013,09,01,17,15,25.70
2013,09,01,17,16,25.70
2013,09,01,17,17,25.70
2013,09,01,17,18,25.70
2013,09,01,17,19,25.60